Charlotte, MI

3:01 PM EDT on March 26, 2017 (GMT -0400)
Charlotte

Weather History for KFPK - January, 2013

Change the Weather History Date:

Thursday, January 10, 2013

  Actual Average (KLAN) Record (KLAN)
Temperature  
Mean Temperature 33 °F -  
Max Temperature 45 °F 27 °F 55 °F (1975)
Min Temperature 21 °F 13 °F -18 °F (1984)
Degree Days  
Heating Degree Days 32    
Moisture  
Dew Point 28 °F    
Average Humidity 82    
Maximum Humidity 99    
Minimum Humidity 51    
Precipitation  
Precipitation 0.21 in - - ()
Sea Level Pressure  
Sea Level Pressure 30.38 in    
Wind  
Wind Speed 3 mph (SE)    
Max Wind Speed 12 mph    
Max Gust Speed 20 mph    
Visibility 9 miles    
Events Rain    
Averages and records for this station are not official NWS values.
T = Trace of Precipitation, MM = Missing Value Source: NWS Daily Summary

Daily Weather History Graph

Daily Weather History Graph

Search for Another Location

Airport or City:

Trip Planner

Search our weather history database for the weather conditions in past years. The results will help you decide how hot, cold, wet, or windy it might be!

Date:

Astronomy

Jan. 10, 2013 Rise Set
Actual Time 8:08 AM EST 5:25 PM EST
Civil Twilight 7:36 AM EST 5:57 PM EST
Nautical Twilight 7:01 AM EST 6:32 PM EST
Astronomical Twilight 6:27 AM EST 7:06 PM EST
Moon 6:47 AM EST (1/10) 4:33 PM EST (1/10)
Length of Visible Light 10h 20m
Length of Day
9h 17m
Waning Crescent, 2% of the Moon is Illuminated
Jan 10
Waning Crescent
Jan 11
New
Jan 18
First Quarter
Jan 26
Full
Feb 3
Last Quarter

Hourly Weather History & Observations

Time (EST) Temp. Windchill Dew Point Humidity Pressure Visibility Wind Dir Wind Speed Gust Speed Precip Events Conditions
12:15 AM 27.9 °F - 25.2 °F 90% 30.41 in 10.0 mi Calm Calm - N/A   Clear
12:35 AM 26.4 °F - 24.3 °F 92% 30.42 in 10.0 mi Calm Calm - N/A   Clear
12:55 AM 26.6 °F - 24.4 °F 92% 30.44 in 10.0 mi Calm Calm - N/A   Clear
1:15 AM 27.5 °F 23.6 °F 25.7 °F 93% 30.46 in 10.0 mi SSW 3.5 mph - N/A   Clear
1:35 AM 29.1 °F 25.4 °F 26.8 °F 91% 30.48 in 10.0 mi SSW 3.5 mph - N/A   Clear
1:55 AM 28.8 °F - 26.4 °F 91% 30.48 in 10.0 mi Calm Calm - N/A   Clear
2:15 AM 28.2 °F - 26.1 °F 92% 30.50 in 10.0 mi Calm Calm - N/A   Clear
2:35 AM 29.8 °F - 27.5 °F 91% 30.50 in 10.0 mi Calm Calm - N/A   Clear
2:55 AM 29.8 °F - 27.5 °F 91% 30.50 in 10.0 mi Calm Calm - N/A   Clear
3:15 AM 26.8 °F - 25.5 °F 95% 30.50 in 10.0 mi Calm Calm - N/A   Clear
3:35 AM 26.1 °F - 24.3 °F 93% 30.49 in 10.0 mi Calm Calm - N/A   Clear
3:55 AM 24.6 °F - 23.4 °F 95% 30.50 in 10.0 mi Calm Calm - N/A   Clear
4:15 AM 23.2 °F - 22.5 °F 97% 30.49 in 10.0 mi Calm Calm - N/A   Clear
4:35 AM 24.8 °F - 23.9 °F 96% 30.49 in 7.0 mi Calm Calm - N/A   Clear
4:55 AM 23.7 °F - 23.0 °F 97% 30.48 in 10.0 mi Calm Calm - N/A   Clear
5:15 AM 23.2 °F - 22.6 °F 98% 30.48 in 7.0 mi Calm Calm - N/A   Clear
5:35 AM 23.5 °F - 22.8 °F 97% 30.48 in 7.0 mi Calm Calm - N/A   Clear
5:55 AM 23.2 °F - 22.6 °F 98% 30.48 in 5.0 mi Calm Calm - N/A   Clear
6:15 AM 21.9 °F - 21.6 °F 99% 30.49 in 7.0 mi Calm Calm - N/A   Clear
6:35 AM 23.0 °F - 22.6 °F 99% 30.49 in 10.0 mi Calm Calm - N/A   Clear
7:15 AM 22.1 °F - 21.7 °F 99% 30.50 in 7.0 mi Calm Calm - N/A   Clear
7:35 AM 23.0 °F - 22.8 °F 99% 30.50 in 10.0 mi Calm Calm - N/A   Clear
7:55 AM 22.3 °F - 21.7 °F 98% 30.51 in 7.0 mi Calm Calm - N/A   Clear
8:35 AM 22.6 °F - 22.1 °F 98% 30.52 in 7.0 mi Calm Calm - N/A   Clear
8:55 AM 23.2 °F - 22.6 °F 98% 30.52 in 7.0 mi Calm Calm - N/A   Clear
9:15 AM 24.6 °F - 24.1 °F 98% 30.52 in 10.0 mi Calm Calm - N/A   Clear
9:35 AM 26.4 °F - 26.1 °F 99% 30.52 in 7.0 mi Calm Calm - N/A   Clear
10:15 AM 30.7 °F - 30.0 °F 97% 30.52 in 10.0 mi Calm Calm - N/A   Clear
10:35 AM 32.7 °F - 32.0 °F 97% 30.50 in 10.0 mi Calm Calm - N/A   Clear
10:55 AM 35.6 °F 30.7 °F 33.4 °F 92% 30.49 in 10.0 mi ESE 5.8 mph - N/A   Clear
11:15 AM 38.1 °F 32.9 °F 32.5 °F 80% 30.48 in 10.0 mi ESE 6.9 mph - N/A   Clear
11:35 AM 39.9 °F 35.1 °F 31.3 °F 71% 30.48 in 10.0 mi ESE 6.9 mph - N/A   Clear
11:55 AM 41.0 °F 36.4 °F 29.3 °F 63% 30.46 in 10.0 mi SE 6.9 mph - N/A   Clear
12:15 PM 42.3 °F 37.3 °F 29.7 °F 61% 30.45 in 10.0 mi SE 8.1 mph - N/A   Clear
12:35 PM 42.3 °F 36.8 °F 29.5 °F 61% 30.44 in 10.0 mi SE 9.2 mph - N/A   Clear
12:55 PM 43.3 °F 38.6 °F 28.8 °F 56% 30.43 in 10.0 mi ESE 8.1 mph - N/A   Clear
1:15 PM 43.5 °F 38.9 °F 27.3 °F 53% 30.41 in 10.0 mi SE 8.1 mph - N/A   Clear
1:35 PM 43.0 °F 38.2 °F 27.3 °F 54% 30.40 in 10.0 mi SE 8.1 mph - N/A   Clear
1:55 PM 43.2 °F 37.4 °F 27.0 °F 53% 30.38 in 10.0 mi SE 10.4 mph - N/A   Clear
2:35 PM 45.0 °F 40.1 °F 27.9 °F 51% 30.38 in 10.0 mi SE 9.2 mph - N/A   Clear
2:55 PM 42.3 °F 36.8 °F 27.0 °F 55% 30.37 in 10.0 mi SE 9.2 mph - N/A   Clear
3:15 PM 41.4 °F 36.2 °F 27.7 °F 58% 30.37 in 10.0 mi ESE 8.1 mph - N/A   Clear
3:35 PM 41.0 °F 37.1 °F 27.5 °F 59% 30.36 in 10.0 mi SE 5.8 mph - N/A   Clear
3:55 PM 41.0 °F 36.4 °F 28.2 °F 60% 30.35 in 10.0 mi ESE 6.9 mph - N/A   Clear
4:15 PM 41.0 °F 36.4 °F 27.1 °F 58% 30.34 in 10.0 mi ESE 6.9 mph 16.1 mph N/A   Clear
4:35 PM 39.9 °F 35.1 °F 28.4 °F 63% 30.33 in 10.0 mi ESE 6.9 mph - N/A   Clear
4:55 PM 39.2 °F 33.6 °F 28.8 °F 66% 30.32 in 10.0 mi ESE 8.1 mph - N/A   Clear
5:15 PM 38.5 °F 33.4 °F 28.8 °F 68% 30.31 in 10.0 mi ESE 6.9 mph - N/A   Clear
5:35 PM 38.1 °F 32.9 °F 28.8 °F 69% 30.31 in 10.0 mi SE 6.9 mph - N/A   Clear
5:55 PM 37.4 °F 31.4 °F 29.1 °F 72% 30.29 in 10.0 mi East 8.1 mph - N/A   Clear
6:15 PM 37.4 °F 31.4 °F 29.3 °F 73% 30.29 in 10.0 mi ESE 8.1 mph - N/A   Clear
6:35 PM 37.0 °F 31.6 °F 29.3 °F 74% 30.29 in 10.0 mi ESE 6.9 mph - N/A   Clear
6:55 PM 37.0 °F 31.0 °F 29.3 °F 74% 30.28 in 10.0 mi ESE 8.1 mph - N/A   Clear
7:15 PM 37.0 °F 31.0 °F 29.3 °F 74% 30.26 in 10.0 mi ESE 8.1 mph - N/A   Scattered Clouds
7:35 PM 37.2 °F 31.9 °F 29.7 °F 74% 30.27 in 10.0 mi SE 6.9 mph - N/A   Scattered Clouds
7:55 PM 37.0 °F 32.4 °F 29.8 °F 75% 30.26 in 10.0 mi SE 5.8 mph - N/A   Mostly Cloudy
8:15 PM 36.9 °F 32.2 °F 30.6 °F 78% 30.26 in 10.0 mi ESE 5.8 mph - N/A Rain Light Rain
8:35 PM 36.1 °F 31.4 °F 32.0 °F 85% 30.25 in 7.0 mi SE 5.8 mph - 0.02 in Rain Light Rain
8:55 PM 36.0 °F 31.1 °F 32.4 °F 87% 30.22 in 7.0 mi ESE 5.8 mph - 0.03 in Rain Light Rain
9:15 PM 35.8 °F 28.8 °F 32.9 °F 89% 30.20 in 7.0 mi East 9.2 mph - 0.02 in Rain Light Rain
9:55 PM 36.1 °F 29.3 °F 33.4 °F 90% 30.17 in 7.0 mi ESE 9.2 mph - 0.03 in Rain Light Rain
10:15 PM 36.0 °F 29.6 °F 33.3 °F 90% 30.16 in 7.0 mi ESE 8.1 mph - 0.01 in Rain Light Rain
10:35 PM 36.0 °F 28.0 °F 33.8 °F 92% 30.13 in 7.0 mi ESE 11.5 mph - 0.02 in Rain Light Rain
10:55 PM 36.3 °F 30.1 °F 33.8 °F 91% 30.11 in 7.0 mi ESE 8.1 mph - 0.02 in   Overcast
11:15 PM 36.5 °F 29.7 °F 33.8 °F 90% 30.09 in 10.0 mi ESE 9.2 mph 18.4 mph N/A Rain Light Rain
11:35 PM 36.5 °F 28.7 °F 33.4 °F 89% 30.09 in 7.0 mi SE 11.5 mph 18.4 mph 0.01 in Rain Rain
11:55 PM 36.5 °F 29.2 °F 34.2 °F 91% 30.08 in 3.0 mi SE 10.4 mph 19.6 mph 0.13 in Rain Rain